Location: Unspecified
(0.0000°N, 0.0000°E)
Time: 23:12:31
(UTC+00:00)

Hubble Space Telescope - Pass Details

Date: 14 January 2019
Orbit: 537 x 540 km, 28.5° (Epoch: 19 January)

Event Time Altitude Azimuth Distance (km) Brightness Sun altitude
Exits shadow 04:53:39 12° 357° (N) 1,643 3.0 -17.5°
Drops below altitude 10° 04:54:22 10° 7° (N) 1,779 3.3 -17.3°
Sets 04:57:30 0° 31° (NNE) 2,669 4.4 -16.6°
